Location: Abucea
(45.9000°N, 22.5333°E)
Time: 15:15:55
(UTC+00:00)

Daily predictions for brighter satellites

Satellite Brightness Start Highest point End
(mag) Time Altitude Azimuth Time Altitude Azimuth Time Altitude Azimuth
USA 307 4.2 16:40:17 10° W 16:44:14 34° NNW 16:48:11 10° NE
Cosmos 2181 Rocket 4.4 16:38:10 10° NNW 16:44:37 75° W 16:50:58 10° S
ATLAS CENTAUR R/B 2.6 16:44:21 10° SSE 16:46:54 18° ESE 16:49:27 10° ENE
Cosmos 1844 Rocket 3.5 16:42:35 10° N 16:47:30 31° NE 16:52:23 10° ESE
USA 306 4.2 16:43:48 10° W 16:47:42 33° NNW 16:51:36 10° NE
Cosmos 44 Rocket 3.6 16:42:59 10° NNW 16:48:11 59° NE 16:53:19 10° SE
CSL-04 Rocket 4.3 16:43:17 10° SE 16:48:15 35° ENE 16:53:12 10° N
FALCON 9 DEB 4.1 16:46:24 10° NW 16:49:36 34° NNE 16:52:46 10° E
Okean-O 2.8 16:46:27 10° SE 16:50:43 49° ENE 16:55:00 10° N
Cosmos 2084 Rocket 3.9 16:48:35 10° NNW 16:52:46 47° NE 16:57:06 10° ESE
ERS-2 2.9 16:50:44 10° NE 16:54:01 31° E 16:57:18 10° SSE
USA 308 4.3 16:51:00 10° WNW 16:54:53 32° NNW 16:58:46 10° NE
Cosmos 1503 Rocket 4.5 16:50:49 10° N 16:55:41 39° ENE 17:00:30 10° SE
Cosmos 1666 4.4 16:57:01 10° ESE 16:58:44 13° E 17:00:28 10° ENE
Cosmos 1271 Rocket 3.0 16:55:21 10° NNW 16:59:05 72° W 17:02:48 10° S
H-2A R/B 3.8 16:56:39 10° N 17:00:24 35° WNW 17:04:08 10° SW
MOS 1 Rocket 4.1 16:55:29 10° N 17:00:29 64° WNW 17:05:43 10° SSW
SKYMED 2 4.1 16:57:09 10° N 17:01:28 66° WNW 17:05:46 10° SSW
Cosmos 2360 Rocket 2.8 16:56:41 10° SSE 17:01:43 34° ESE 17:06:47 10° NE
HJ-1C 3.8 16:59:41 10° SE 17:02:48 39° ENE 17:05:55 10° N
PSLV R/B 4.0 16:59:22 10° NNE 17:03:23 53° E 17:07:21 10° S
Cosmos 2278 Rocket 4.1 17:01:44 10° NNE 17:03:44 12° NE 17:05:43 10° NE
Cosmos 1470 Rocket 3.9 16:59:56 10° SSE 17:04:10 44° E 17:08:25 10° NNE
Ariane Rocket 4.5 17:02:02 10° E 17:05:21 18° ENE 17:08:39 10° NNE
Meteor 1-19 Rocket 4.3 17:00:55 10° N 17:06:52 66° ENE 17:12:35 10° SSE
Cosmos 1602 3.7 17:05:54 10° S 17:09:47 79° E 17:13:43 10° NNE
CZ-4B R/B 2.4 17:07:41 10° N 17:10:37 45° WNW 17:13:33 10° SSW
Meteor 2-4 Rocket 4.1 17:06:04 10° N 17:11:40 44° ENE 17:17:17 10° SE
Cosmos 2333 Rocket 3.5 17:08:07 10° SE 17:11:53 18° E 17:15:41 10° ENE
Okean O Rocket 4.5 17:09:45 10° SW 17:13:08 22° W 17:16:33 10° NW
Cosmos 1703 Rocket 4.3 17:12:56 10° N 17:16:52 31° ENE 17:20:46 10° SE
Cosmos 1500 3.5 17:13:40 10° SSE 17:17:11 42° E 17:20:44 10° NNE
Cosmos 1980 Rocket 4.1 17:13:00 10° WSW 17:17:54 29° NW 17:22:52 10° N
SL-08 RB Rocket 3.9 17:14:25 10° SSE 17:18:45 51° ENE 17:23:11 10° N
SJ-11-01 4.4 17:18:44 10° S 17:23:25 81° WSW 17:28:09 10° NNW
Cosmos 1933 Rocket 3.7 17:20:54 10° SSE 17:25:05 49° E 17:29:19 10° NNE
Cosmos 1689 Rocket 1.8 17:22:25 10° NNE 17:25:19 84° ESE 17:28:11 10° SSW
Cosmos 2327 Rocket 4.5 17:19:03 10° S 17:25:24 83° E 17:31:41 10° N
ERBS 4.0 17:23:21 10° W 17:26:16 28° NNW 17:29:12 10° NE
Cosmos 1862 Rocket 3.9 17:24:35 10° NNW 17:29:05 71° W 17:33:31 10° S
BREEZE-M DEB (TANK) 2.8 17:23:57 10° SW 17:29:23 44° SSE 17:30:49 24° E
Cosmos 2322 Rocket 2.3 17:25:51 10° SSW 17:31:28 82° WNW 17:37:08 10° NNE
Aureole 2 Rocket 1.6 17:31:07 10° NNW 17:33:39 80° WSW 17:35:38 14° SSE
Resurs 01 Rocket 3.6 17:35:07 12° NE 17:35:07 12° NE 17:36:30 10° NNE
Cosmos 2242 Rocket 3.7 17:30:17 10° N 17:34:43 53° ENE 17:39:04 10° SSE
Nadezhda 3 Rocket 4.2 17:29:58 10° N 17:36:22 82° W 17:42:44 10° S
ATLAS 5 CENTAUR R/B 4.4 17:26:19 10° WSW 17:37:49 35° NW 17:41:37 10° NNE
Lacrosse 4 Rocket 3.1 17:36:04 10° SSE 17:38:01 18° SE 17:38:01 18° SE
COSMOS 2428 3.7 17:37:24 10° SSE 17:41:48 24° ESE 17:42:30 23° E
Cosmos 2154 Rocket 4.2 17:36:08 10° SSW 17:42:21 76° W 17:48:34 10° N
YAOGAN 1 3.7 17:38:45 10° S 17:42:54 45° W 17:47:05 10° NNW
Helios 1A Rocket 3.1 17:38:58 10° S 17:43:01 74° WSW 17:47:04 10° NNW
Abrixas rocket 2.2 17:43:14 10° WNW 17:45:39 43° N 17:45:57 40° NNE
Meteor 1-14 Rocket 4.1 17:40:15 10° S 17:45:50 89° E 17:51:24 10° N
ASTEX 1 4.0 17:43:56 10° NNE 17:48:20 33° E 17:50:36 22° SE
SJ-6B 3.3 17:46:54 28° ESE 17:48:29 41° ENE 17:52:19 10° N
Meteor 1-11 Rocket 4.2 17:43:36 10° SSE 17:48:47 37° E 17:53:53 10° NNE
Cosmos 2219 Rocket 2.8 17:44:05 10° SSE 17:48:56 31° ESE 17:53:41 11° NE
GP-B 3.0 17:46:08 10° S 17:50:34 83° E 17:55:01 10° N
MetOp-A 4.1 17:46:32 10° SSE 17:51:48 62° ENE 17:57:06 10° N
ARGOS 3.9 17:50:36 10° S 17:55:55 56° W 18:01:16 10° NNW
SL-16 R/B 3.3 17:50:48 10° SW 17:56:12 45° WNW 18:01:40 10° NNE
USA 234 3.3 17:52:33 16° ENE 17:57:56 60° SE 18:04:23 10° SW
Resurs 1-3 4.3 18:01:24 33° ENE 18:01:24 33° ENE 18:05:13 10° N
Meteor 1-13 Rocket 4.3 17:55:35 10° N 18:01:29 60° ENE 18:05:58 17° SSE
SeaSat 1 2.6 17:56:58 10° NNE 18:01:55 76° WNW 18:06:50 10° SW
OBJECT-B 1.9 18:03:20 30° NNE 18:03:20 30° NNE 18:05:20 10° N
SJ 16-02 2.9 17:59:56 10° N 18:02:34 21° NE 18:02:34 21° NE
Okean 1-7 2.9 18:00:08 10° N 18:04:32 90° WSW 18:08:47 10° S
IRS-1A Rocket 4.3 18:03:52 24° SE 18:07:13 59° ENE 18:12:41 10° N
H-2A R/B 4.0 18:02:40 10° SSW 18:07:29 32° W 18:12:20 10° NNW
CZ-4 R/B 4.1 18:04:47 10° SW 18:07:35 19° W 18:10:26 10° NW
CZ-2C R/B 3.0 18:02:19 10° N 18:07:48 69° WNW 18:13:06 10° SSW
Cosmos 2322 3.7 18:02:58 10° S 18:08:34 58° ESE 18:14:10 10° NNE
USA 305 4.3 18:10:03 10° NW 18:13:45 27° N 18:14:50 24° NNE
SL-8 Rocket 3.9 18:08:01 10° S 18:14:14 80° E 18:20:28 10° N
DMSP B5D2-2 4.0 18:08:59 10° NNE 18:14:14 88° WNW 18:19:27 10° SSW
Gbstr 26 Del rocket 4.2 18:12:02 10° WNW 18:16:32 43° N 18:18:27 31° NE
SL-4 R/B 2.1 18:15:34 10° WNW 18:18:38 48° N 18:18:38 48° N
Cosmos 1869 Rocket 3.4 18:14:59 10° S 18:19:19 77° E 18:23:44 10° NNE
USA 186 4.1 18:25:07 14° NNW 18:25:07 14° NNW 18:25:39 10° NNW
USA 307 4.3 18:21:23 10° NW 18:25:06 28° N 18:25:41 27° NNE
ATLAS CENTAUR R/B 2.2 18:22:02 10° WSW 18:25:28 41° NW 18:26:57 27° N
FALCON 9 DEB 3.9 18:23:18 10° WNW 18:26:13 49° WSW 18:26:13 49° WSW
USA 306 4.3 18:24:49 10° NW 18:28:33 28° N 18:28:56 28° NNE
Cosmos 2366 rocket 3.9 18:22:56 10° S 18:29:14 84° E 18:35:37 10° N
Cosmos 1844 Rocket 3.5 18:26:15 10° NW 18:31:35 47° WSW 18:36:09 14° S
Cosmos 1666 3.7 18:30:17 10° SSW 18:33:52 45° WNW 18:37:29 10° N
USA 308 4.3 18:32:01 10° NW 18:35:46 29° N 18:35:51 29° N
Cosmos 1777 Rocket 4.0 18:31:13 10° NNW 18:36:28 78° WSW 18:37:59 47° S
SPOT 3 Rocket 3.9 18:37:59 49° NE 18:37:59 49° NE 18:42:25 10° N
Cosmos 2333 4.3 18:33:33 10° SSW 18:39:12 77° WNW 18:44:57 10° NNE
Okean 3 3.7 18:38:49 10° NNW 18:42:57 69° W 18:42:57 69° W
Ariane Rocket 3.1 18:42:03 43° S 18:43:44 73° WSW 18:48:51 10° NNW
Cosmos 2360 Rocket 3.4 18:40:19 10° SW 18:45:37 41° NW 18:50:59 10° NNE
Cosmos 2278 Rocket 2.6 18:43:47 10° NNW 18:48:36 46° NE 18:48:36 46° NE
Cosmos 1727 Rocket 3.8 18:45:08 10° N 18:51:22 89° E 18:52:56 54° S
Meteor 2-20 4.3 18:47:10 10° N 18:53:18 83° E 18:54:05 69° SSE
Cosmos 2333 Rocket 2.3 18:49:50 10° SSW 18:55:30 73° WNW 19:01:15 10° NNE
Cosmos 2218 Rocket 4.5 18:50:03 10° SSW 18:56:22 62° WNW 19:02:43 10° N
Cosmos 1943 Rocket 4.2 19:04:46 10° N 19:06:52 16° NNE 19:06:52 16° NNE
Resurs 01 Rocket 3.3 19:12:41 29° NNW 19:12:41 29° NNW 19:14:52 10° NNW
Lacrosse 4 Rocket 3.8 19:13:22 10° SW 19:14:29 17° SW 19:14:29 17° SW
COSMOS 2428 3.3 19:20:02 10° SW 19:32:12 - NNE 19:24:51 53° W
Cosmos 2219 Rocket 3.2 19:27:25 10° SW 19:32:43 44° NW 19:38:05 10° NNE
USA 234 3.8 19:39:54 50° N 19:40:54 54° NNW 19:47:14 10° W
SJ 16-02 3.7 19:37:59 10° NNW 19:39:35 21° NW 19:39:35 21° NW
Cosmos 2278 Rocket 4.5 20:28:22 10° NW 20:30:28 20° WNW 20:30:28 20° WNW
